DW7733 Weather Reports


time (UTC)temp
C
wind
direction
speed
KPH
gust
KPH
rain 1hr
cm
rain 24hr
cm
rain mn
cm
humidity
%
barometer
mb
20260506044549 8 146 0.0 0.0 0.00 0.05 0.00 93 1007.0
20260506043033 8 147 0.0 0.0 0.00 0.05 0.00 93 1007.2
20260506041533 8 146 0.0 0.0 0.00 0.05 0.00 93 1007.2
20260506040029 8 142 0.0 0.0 0.00 0.05 0.00 92 1007.1
20260506034529 8 142 0.0 0.0 0.00 0.05 0.05 92 1007.1
20260506033028 8 139 0.0 0.0 0.00 0.05 0.05 92 1007.1
20260506031531 8 132 0.0 1.6 0.00 0.05 0.05 91 1007.1
20260506030027 8 134 0.0 1.6 0.00 0.05 0.05 91 1007.3
20260506024531 8 134 0.0 1.6 0.00 0.05 0.05 91 1007.0
20260506023023 8 156 0.0 1.6 0.00 0.05 0.05 91 1007.0
20260506021523 8 143 0.0 3.2 0.00 0.05 0.05 91 1007.1
20260506020021 8 137 0.0 0.0 0.00 0.05 0.05 91 1007.1
20260506014521 8 129 0.0 0.0 0.00 0.05 0.05 91 1007.1
20260506013024 8 149 0.0 0.0 0.00 0.05 0.05 91 1007.0
20260506011525 8 131 0.0 0.0 0.00 0.05 0.05 91 1006.8
20260506010019 8 136 0.0 0.0 0.00 0.05 0.05 90 1006.7
20260506004518 8 143 0.0 0.0 0.00 0.05 0.05 89 1006.6
20260506003018 8 141 0.0 0.0 0.00 0.05 0.05 89 1006.4
20260506001517 9 141 0.0 0.0 0.00 0.05 0.05 87 1006.3
20260506000015 9 144 0.0 1.6 0.00 0.05 0.05 86 1006.1
20260505234532 9 116 0.0 0.0 0.00 0.05 0.05 85 1006.1
20260505233017 10 131 0.0 0.0 0.00 0.05 0.05 84 1006.2
20260505231516 10 116 0.0 3.2 0.00 0.05 0.05 83 1006.2
20260505230014 10 78 0.0 1.6 0.00 0.05 0.05 83 1006.4
20260505224514 10 239 0.0 3.2 0.00 0.05 0.05 82 1006.4
20260505223012 9 68 0.0 6.4 0.00 0.05 0.05 81 1006.4
20260505221511 9 60 0.0 4.8 0.00 0.05 0.05 81 1006.4
20260505220011 9 217 0.0 6.4 0.00 0.05 0.05 79 1006.5
20260505214509 9 136 0.0 4.8 0.00 0.05 0.05 77 1006.6
20260505213009 9 134 0.0 1.6 0.00 0.05 0.05 76 1006.7
20260505211508 9 105 0.0 4.8 0.00 0.05 0.05 75 1006.4
20260505210009 9 153 0.0 3.2 0.00 0.05 0.05 72 1006.7
20260505204506 9 118 0.0 3.2 0.00 0.05 0.05 74 1006.8
20260505203006 8 136 0.0 0.0 0.00 0.05 0.05 74 1006.8
20260505201506 8 251 0.0 0.0 0.00 0.05 0.05 72 1007.1
20260505200007 8 263 0.0 0.0 0.00 0.05 0.05 69 1007.0
20260505194503 8 257 0.0 0.0 0.00 0.05 0.05 69 1006.9
20260505193003 8 252 0.0 0.0 0.00 0.05 0.05 68 1006.9
20260505191502 8 342 0.0 0.0 0.00 0.05 0.05 67 1006.9
20260505190107 7 346 0.0 0.0 0.00 0.05 0.05 72 1006.7
20260505184601 7 348 0.0 0.0 0.00 0.05 0.05 79 1006.6
20260505183056 7 345 0.0 0.0 0.00 0.05 0.05 80 1006.4
20260505181556 7 351 0.0 0.0 0.03 0.05 0.05 80 1006.5
20260505180054 7 4 0.0 0.0 0.05 0.05 0.05 79 1006.4
20260505174553 6 11 0.0 0.0 0.05 0.05 0.05 84 1006.0
20260505173054 6 22 1.6 4.8 0.05 0.05 0.05 86 1006.0
20260505171552 6 16 6.4 6.4 0.03 0.03 0.03 86 1005.9
20260505170049 6 16 4.8 6.4 0.00 0.00 0.00 84 1005.8
20260505164555 6 9 6.4 8.0 0.00 0.00 0.00 83 1005.8
20260505163049 6 343 4.8 8.0 0.00 0.00 0.00 84 1006.2
20260505161546 6 336 8.0 12.9 0.00 0.00 0.00 82 1006.0
20260505153047 6 29 9.7 12.9 0.00 0.00 0.00 82 1005.4
20260505151545 6 338 9.7 17.7 0.00 0.00 0.00 84 1005.6
20260505124523 7 18 14.5 17.7 0.00 0.00 0.00 83 1002.7
20260505123022 7 355 14.5 17.7 0.00 0.00 0.00 86 1002.6
20260505121524 6 351 16.1 20.9 0.00 0.00 0.00 85 1002.7
20260505120018 6 341 16.1 19.3 0.00 0.00 0.00 86 1002.0
20260505114515 6 340 16.1 20.9 0.00 0.00 0.00 87 1001.9
20260505113013 6 340 14.5 24.1 0.00 0.00 0.00 88 1001.6
20260505111511 6 13 17.7 24.1 0.00 0.00 0.00 88 1001.4